• In Belarus
  • List of Countries
  • For 7 days
  • Water Temperature
  • Satellite Maps
  • Weather Map
  • Weather Widgets
  • user-avatar
    Login

    Hourly Weather Kuznecy

    Today, 26 September, Wednesday

    Time Temperature Precipitation Wind Pressure Humidity
    00:00 +5°C° 0 mm 4 mps 750 mmHg 81%
    01:00 +5°C° 0 mm 4 mps 751 mmHg 84%
    02:00 +4°C° 0 mm 4 mps 751 mmHg 87%
    03:00 +3°C° 0 mm 4 mps 752 mmHg 89%
    04:00 +3°C° 0 mm 3 mps 752 mmHg 90%
    05:00 +3°C° 0 mm 3 mps 753 mmHg 92%
    06:00 +3°C° 0 mm 4 mps 754 mmHg 88%
    07:00 +4°C° 0 mm 4 mps 754 mmHg 84%
    08:00 +5°C° 0 mm 4 mps 755 mmHg 80%
    09:00 +6°C° 0 mm 4 mps 755 mmHg 72%
    10:00 +7°C° 0 mm 4 mps 755 mmHg 65%
    11:00 +10°C° 0 mm 4 mps 755 mmHg 58%
    12:00 +10°C° 0 mm 4 mps 755 mmHg 54%
    13:00 +10°C° 0 mm 4 mps 755 mmHg 51%
    14:00 +11°C° 0 mm 4 mps 755 mmHg 48%
    15:00 +10°C° 0 mm 4 mps 755 mmHg 53%
    16:00 +9°C° 0 mm 3 mps 755 mmHg 58%
    17:00 +8°C° 0 mm 3 mps 755 mmHg 62%
    18:00 +8°C° 0 mm 3 mps 755 mmHg 65%
    19:00 +6°C° 0 mm 4 mps 755 mmHg 67%
    20:00 +6°C° 0 mm 4 mps 755 mmHg 70%
    21:00 +6°C° 0 mm 5 mps 754 mmHg 68%
    22:00 +5°C° 0 mm 6 mps 753 mmHg 66%
    23:00 +5°C° 0 mm 6 mps 753 mmHg 64%

    Tomorrow, 27 September, Thursday

    Time Temperature Precipitation Wind Pressure Humidity
    00:00 +5°C° 0 mm 7 mps 752 mmHg 62%
    01:00 +5°C° 0 mm 7 mps 751 mmHg 60%
    02:00 +6°C° 0 mm 8 mps 750 mmHg 58%
    03:00 +5°C° 0.2 mm 9 mps 749 mmHg 61%
    04:00 +5°C° 0.2 mm 9 mps 748 mmHg 65%
    05:00 +5°C° 0.2 mm 10 mps 747 mmHg 68%
    06:00 +5°C° 0.2 mm 10 mps 747 mmHg 71%
    07:00 +5°C° 0.2 mm 10 mps 746 mmHg 75%
    08:00 +5°C° 0.2 mm 10 mps 746 mmHg 79%
    09:00 +6°C° 0.2 mm 10 mps 746 mmHg 81%
    10:00 +6°C° 0.2 mm 10 mps 746 mmHg 83%
    11:00 +6°C° 0.2 mm 9 mps 746 mmHg 85%
    12:00 +7°C° 0.1 mm 9 mps 746 mmHg 85%
    13:00 +9°C° 0.1 mm 8 mps 746 mmHg 85%
    14:00 +9°C° 0.1 mm 8 mps 745 mmHg 85%
    15:00 +9°C° 0.1 mm 7 mps 746 mmHg 86%
    16:00 +9°C° 0.1 mm 7 mps 746 mmHg 87%
    17:00 +10°C° 0.1 mm 6 mps 746 mmHg 88%
    18:00 +9°C° 0.1 mm 6 mps 746 mmHg 90%
    19:00 +9°C° 0.1 mm 5 mps 747 mmHg 91%
    20:00 +9°C° 0.1 mm 5 mps 747 mmHg 92%
    21:00 +9°C° 0 mm 5 mps 747 mmHg 92%
    22:00 +8°C° 0 mm 5 mps 747 mmHg 93%
    23:00 +8°C° 0 mm 5 mps 747 mmHg 93%

    Day after tomorrow, 28 September, Friday

    Time Temperature Precipitation Wind Pressure Humidity
    00:00 +8°C° 0 mm 5 mps 747 mmHg 94%
    01:00 +8°C° 0 mm 5 mps 747 mmHg 94%
    02:00 +7°C° 0 mm 5 mps 747 mmHg 95%
    03:00 +7°C° 0 mm 6 mps 746 mmHg 95%
    04:00 +8°C° 0 mm 6 mps 746 mmHg 94%
    05:00 +8°C° 0 mm 7 mps 746 mmHg 94%
    06:00 +9°C° 0 mm 7 mps 745 mmHg 91%
    07:00 +9°C° 0 mm 8 mps 745 mmHg 89%
    08:00 +10°C° 0 mm 8 mps 745 mmHg 87%
    09:00 +11°C° 0.1 mm 8 mps 744 mmHg 87%
    10:00 +11°C° 0.1 mm 8 mps 744 mmHg 86%
    11:00 +12°C° 0.1 mm 8 mps 743 mmHg 86%
    12:00 +12°C° 0 mm 8 mps 743 mmHg 84%
    13:00 +13°C° 0 mm 8 mps 743 mmHg 82%
    14:00 +15°C° 0 mm 8 mps 742 mmHg 81%
    15:00 +15°C° 0.4 mm 7 mps 742 mmHg 82%
    16:00 +15°C° 0.4 mm 7 mps 743 mmHg 84%
    17:00 +14°C° 0.4 mm 7 mps 743 mmHg 86%
    18:00 +13°C° 0.2 mm 6 mps 743 mmHg 86%
    19:00 +12°C° 0.2 mm 5 mps 744 mmHg 86%
    20:00 +11°C° 0.2 mm 4 mps 745 mmHg 87%
    21:00 +10°C° 0 mm 3 mps 746 mmHg 88%
    22:00 +9°C° 0 mm 3 mps 746 mmHg 89%
    23:00 +9°C° 0 mm 2 mps 747 mmHg 90%

    29 September, Saturday

    Time Temperature Precipitation Wind Pressure Humidity
    00:00 +8°C° 0 mm 2 mps 747 mmHg 90%
    01:00 +7°C° 0 mm 2 mps 747 mmHg 90%
    02:00 +6°C° 0 mm 2 mps 748 mmHg 90%
    03:00 +7°C° 0 mm 1 mps 748 mmHg 89%
    04:00 +7°C° 0 mm 1 mps 748 mmHg 88%
    05:00 +6°C° 0 mm 1 mps 749 mmHg 88%
    06:00 +7°C° 0 mm 1 mps 749 mmHg 83%
    07:00 +8°C° 0 mm 1 mps 749 mmHg 78%
    08:00 +9°C° 0 mm 1 mps 749 mmHg 73%
    09:00 +11°C° 0 mm 1 mps 750 mmHg 67%
    10:00 +12°C° 0 mm 1 mps 750 mmHg 61%
    11:00 +13°C° 0 mm 1 mps 750 mmHg 54%
    12:00 +13°C° 0 mm 1 mps 750 mmHg 52%
    13:00 +13°C° 0 mm 1 mps 750 mmHg 51%
    14:00 +14°C° 0 mm 1 mps 750 mmHg 49%
    15:00 +13°C° 0 mm 1 mps 750 mmHg 52%
    16:00 +12°C° 0 mm 1 mps 750 mmHg 56%
    17:00 +11°C° 0 mm 1 mps 751 mmHg 60%
    18:00 +10°C° 0 mm 2 mps 751 mmHg 62%
    19:00 +9°C° 0 mm 2 mps 752 mmHg 63%
    20:00 +9°C° 0 mm 2 mps 752 mmHg 65%
    21:00 +8°C° 0 mm 2 mps 752 mmHg 69%
    22:00 +8°C° 0 mm 2 mps 752 mmHg 73%
    23:00 +7°C° 0 mm 2 mps 753 mmHg 76%

    30 September, Sunday

    Time Temperature Precipitation Wind Pressure Humidity
    00:00 +7°C° 0 mm 2 mps 753 mmHg 79%
    01:00 +6°C° 0 mm 2 mps 753 mmHg 81%
    02:00 +6°C° 0 mm 2 mps 753 mmHg 83%
    03:00 +5°C° 0 mm 2 mps 754 mmHg 85%
    04:00 +5°C° 0 mm 2 mps 754 mmHg 87%
    05:00 +5°C° 0 mm 2 mps 754 mmHg 89%
    06:00 +6°C° 0 mm 2 mps 754 mmHg 85%
    07:00 +8°C° 0 mm 1 mps 755 mmHg 81%
    08:00 +9°C° 0 mm 1 mps 755 mmHg 76%
    09:00 +10°C° 0 mm 1 mps 755 mmHg 70%
    10:00 +12°C° 0 mm 1 mps 755 mmHg 64%
    11:00 +12°C° 0 mm 0 mps 755 mmHg 58%
    12:00 +14°C° 0.1 mm 1 mps 755 mmHg 56%
    13:00 +14°C° 0.1 mm 1 mps 754 mmHg 53%
    14:00 +14°C° 0.1 mm 1 mps 754 mmHg 50%
    15:00 +13°C° 0 mm 1 mps 754 mmHg 55%
    16:00 +12°C° 0 mm 1 mps 754 mmHg 59%
    17:00 +11°C° 0 mm 1 mps 754 mmHg 63%
    18:00 +10°C° 0 mm 1 mps 754 mmHg 65%
    19:00 +10°C° 0 mm 1 mps 754 mmHg 67%
    20:00 +9°C° 0 mm 1 mps 754 mmHg 70%
    21:00 +8°C° 0 mm 1 mps 754 mmHg 71%
    22:00 +8°C° 0 mm 1 mps 754 mmHg 71%
    23:00 +8°C° 0 mm 1 mps 754 mmHg 72%

    1 October, Monday

    Time Temperature Precipitation Wind Pressure Humidity
    00:00 +7°C° 0 mm 1 mps 754 mmHg 73%
    01:00 +7°C° 0 mm 1 mps 754 mmHg 74%
    02:00 +6°C° 0 mm 1 mps 754 mmHg 75%
    03:00 +6°C° 0 mm 1 mps 754 mmHg 75%
    04:00 +5°C° 0 mm 0 mps 754 mmHg 75%
    05:00 +5°C° 0 mm 0 mps 753 mmHg 76%
    06:00 +7°C° 0 mm 1 mps 753 mmHg 72%
    07:00 +8°C° 0 mm 1 mps 753 mmHg 68%
    08:00 +9°C° 0 mm 1 mps 753 mmHg 64%
    09:00 +11°C° 0 mm 1 mps 753 mmHg 60%
    10:00 +12°C° 0 mm 2 mps 753 mmHg 55%
    11:00 +13°C° 0 mm 2 mps 753 mmHg 50%
    12:00 +14°C° 0 mm 2 mps 753 mmHg 48%
    13:00 +14°C° 0 mm 2 mps 752 mmHg 46%
    14:00 +15°C° 0 mm 2 mps 752 mmHg 45%
    15:00 +14°C° 0 mm 2 mps 752 mmHg 49%
    16:00 +13°C° 0 mm 1 mps 751 mmHg 54%
    17:00 +11°C° 0 mm 1 mps 751 mmHg 59%
    18:00 +11°C° 0 mm 1 mps 751 mmHg 60%
    19:00 +10°C° 0 mm 1 mps 751 mmHg 62%
    20:00 +10°C° 0 mm 1 mps 751 mmHg 63%
    21:00 +9°C° 0 mm 1 mps 751 mmHg 64%
    22:00 +9°C° 0 mm 1 mps 751 mmHg 66%
    23:00 +8°C° 0 mm 2 mps 751 mmHg 67%
    Show more